Date,TemperatureHighF,TemperatureAvgF,TemperatureLowF,DewpointHighF,DewpointAvgF,DewpointLowF,HumidityHigh,HumidityAvg,HumidityLow,PressureMaxIn,PressureMinIn,WindSpeedMaxMPH,WindSpeedAvgMPH,GustSpeedMaxMPH,PrecipitationSumIn
2013-3-1,30.4,28.4,26.9,28.4,27.0,25.4,95,94,92,29.86,29.80,6,2,14,0.07
2013-3-2,27.4,23.5,19.6,26.2,21.6,17.4,95,92,88,29.94,29.79,1,0,12,0.00
2013-3-3,22.5,19.9,17.2,19.8,17.3,15.0,92,89,83,30.00,29.92,8,5,21,0.00
2013-3-4,40.7,29.3,17.7,23.3,18.3,14.5,87,66,42,30.11,29.92,7,2,16,0.09
2013-3-5,44.6,39.3,28.6,43.5,33.0,22.0,96,80,52,29.93,29.43,15,7,35,0.81
2013-3-6,27.2,24.2,22.3,25.1,22.2,19.5,94,92,86,30.14,29.59,12,8,28,0.00
2013-3-7,27.3,25.2,23.8,24.8,23.4,22.3,94,93,90,30.27,30.12,4,2,13,0.00
2013-3-8,35.9,28.8,23.6,29.1,24.8,21.9,94,85,73,30.32,30.23,7,2,15,0.01
2013-3-9,59.0,45.1,29.2,33.7,26.6,23.8,81,53,30,30.26,30.01,8,2,20,0.00
2013-3-10,65.0,55.5,48.9,39.0,33.1,28.0,48,43,37,30.01,29.85,19,10,36,0.00
2013-3-11,55.8,51.4,47.4,46.9,42.0,32.3,95,72,46,29.86,29.61,19,14,41,0.36
2013-3-12,47.4,37.5,31.5,46.3,33.6,28.3,96,86,69,29.94,29.65,9,4,19,0.19
2013-3-13,35.8,29.3,23.4,28.8,22.6,16.0,91,76,65,30.17,29.91,13,8,33,0.01
2013-3-14,37.5,27.2,19.7,19.1,16.4,14.7,87,65,44,30.27,30.13,11,6,27,0.00
2013-3-15,55.8,41.4,29.4,39.8,27.9,16.5,69,59,48,30.15,29.77,11,5,26,0.00
2013-3-16,66.1,57.0,49.8,52.0,46.8,40.0,83,69,53,29.76,29.52,12,6,31,0.10
2013-3-17,57.0,44.5,40.7,48.8,42.4,39.4,97,93,74,29.88,29.70,5,1,16,0.12
2013-3-18,50.9,45.1,41.1,45.9,42.4,38.7,96,90,78,29.83,29.63,19,9,40,0.89
2013-3-19,47.4,41.1,33.2,46.2,27.3,9.5,96,63,29,29.99,29.62,15,9,35,0.09
2013-3-20,43.1,34.4,27.3,27.4,16.0,8.4,92,49,30,29.99,29.74,15,7,33,0.00
2013-3-21,26.4,20.5,15.0,23.3,12.3,8.8,88,70,58,29.95,29.75,11,7,23,0.00
2013-3-22,41.2,27.0,15.6,19.3,13.8,10.1,81,59,39,30.01,29.89,5,1,20,0.00
2013-3-23,45.7,38.0,32.9,35.5,24.9,15.4,70,59,46,29.95,29.77,1,0,6,0.00
2013-3-24,43.9,40.5,37.7,40.9,36.4,29.6,94,86,65,29.75,29.23,15,6,31,0.88
2013-3-25,37.7,28.3,25.1,35.9,23.1,-99.9,93,88,73,29.80,29.34,14,9,33,0.08
2013-3-26,28.8,26.5,25.1,25.9,24.6,23.4,94,92,84,30.13,29.81,10,7,23,0.00
2013-3-27,32.4,28.4,25.3,25.3,22.6,20.5,94,79,65,30.21,30.12,9,6,21,0.01
2013-3-28,41.4,33.0,27.4,27.6,22.9,19.7,78,67,52,30.24,30.16,8,4,18,0.00
2013-3-29,49.6,39.3,32.9,33.4,25.9,21.9,89,60,37,30.22,30.08,7,3,19,0.00
2013-3-30,53.0,42.7,33.2,37.8,34.6,31.7,94,75,51,30.14,29.90,5,2,20,0.00
2013-3-31,51.9,47.1,42.3,46.9,43.4,38.0,96,87,68,29.89,29.69,15,5,26,0.26